This is the latest recevied weather packets stored in our database for station/object OE-11208. If no packets are shown the sender has not sent any weather packets the latest 10 day(s).
| Time | Temp. | Humidity | Pressure | Rain* | Wind** | Luminosity | Snow |
|---|---|---|---|---|---|---|---|
| 1787838922 | 30° C | 46% | 1009.5 hPa | 0 mm | - | 612 W/m² | - |
| 1787838095 | 30° C | 49% | 1009.5 hPa | 0 mm | - | 619 W/m² | - |
| 1787837722 | 30° C | 47% | 1009.7 hPa | 0 mm | - | 652 W/m² | - |
| 1787837122 | 29.44° C | 45% | 1010.1 hPa | 0 mm | - | 666 W/m² | - |
| 1787836295 | 29.44° C | 48% | 1010.1 hPa | 0 mm | - | 659 W/m² | - |
| 1787835921 | 29.44° C | 48% | 1010.3 hPa | 0 mm | - | 693 W/m² | - |
| 1787835322 | 28.89° C | 45% | 1010.6 hPa | 0 mm | - | 706 W/m² | - |
| 1787834495 | 28.89° C | 45% | 1010.7 hPa | 0 mm | - | 726 W/m² | - |
| 1787834121 | 28.33° C | 45% | 1010.8 hPa | 0 mm | - | 740 W/m² | - |
| 1787833522 | 28.33° C | 44% | 1011.2 hPa | 0 mm | - | 740 W/m² | - |
| 1787832695 | 27.78° C | 53% | 1011.3 hPa | 0 mm | - | 733 W/m² | - |
| 1787832322 | 27.78° C | 49% | 1011.5 hPa | 0 mm | - | 733 W/m² | - |
| 1787831721 | 27.22° C | 47% | 1011.9 hPa | 0 mm | - | 713 W/m² | - |
| 1787830895 | 26.67° C | 50% | 1012 hPa | 0 mm | - | 706 W/m² | - |
| 1787830521 | 26.11° C | 51% | 1012.5 hPa | 0 mm | - | 720 W/m² | - |
| 1787829921 | 26.11° C | 58% | 1012.6 hPa | 0 mm | - | 746 W/m² | - |
| 1787829095 | 25.56° C | 56% | 1012.8 hPa | 0 mm | - | 740 W/m² | - |
| 1787828722 | 25.56° C | 56% | 1013.2 hPa | 0 mm | - | 740 W/m² | - |
| 1787828122 | 25° C | 56% | 1013.2 hPa | 0 mm | - | 753 W/m² | - |
| 1787827295 | 24.44° C | 54% | 1013.5 hPa | 0 mm | - | 686 W/m² | - |
| 1787826921 | 24.44° C | 55% | 1013.7 hPa | 0 mm | - | 639 W/m² | - |
| 1787826322 | 23.89° C | 58% | 1013.7 hPa | 0 mm | - | 706 W/m² | - |
| 1787825495 | 22.78° C | 60% | 1014.1 hPa | 0 mm | - | 531 W/m² | - |
| 1787825122 | 22.78° C | 64% | 1013.9 hPa | 0 mm | - | 471 W/m² | - |
| 1787824522 | 22.22° C | 64% | 1014.2 hPa | 0 mm | - | 538 W/m² | - |
* Rain latest hour (hover to see other rain measurements)
** Current wind speed in m/s (hover to see current wind gust speed)